Location: ???? ??
(36.0534°N, 43.5630°E)
Time: 16:31:18
(UTC+00:00)

Okean 2 Rocket - Pass Details

Date: 18 September 2019
Orbit: 617 x 641 km, 82.5° (Epoch: 21 October)

Event Time Altitude Azimuth Distance (km) Brightness Sun altitude
Rises 15:42:56 0° 198° (SSW) 2,900 6.6 -7.6°
Reaches altitude 10° 15:45:12 10° 204° (SSW) 2,001 5.9 -8.0°
Maximum altitude 15:49:31 49° 280° (W) 822 4.3 -8.9°
Drops below altitude 10° 15:53:52 10° 355° (N) 2,029 5.9 -9.8°
Sets 15:56:12 0° 1° (N) 2,945 6.7 -10.2°
